Theta_e
329 326 323 322 322 322 327 327 326 326 327 327 328 328 328 328 329 328 328 328 326 325 323 321 320 321 320 321 320 319 316 312 304 304 305 314 318 319
324 322 322 323 323 326 327 326 325 324 323 324 326 323 323 328 328 328 328 328 327 325 324 323 321 320 321 321 321 320 317 315 313 307 305 311 318 319
322 322 322 322 324 327 326 325 325 325 324 324 326 326 325 328 328 328 328 328 327 326 324 324 322 320 320 320 321 321 320 317 315 314 307 307 317 319
320 322 324 325 326 326 326 325 325 325 324 324 327 327 326 327 326 328 327 327 327 326 325 324 323 320 319 318 319 320 321 319 317 315 312 308 315 318
315 318 321 324 326 326 325 326 326 326 326 326 327 327 326 326 324 323 324 326 327 327 326 324 323 321 320 319 318 319 321 320 318 317 314 312 313 318
306 309 312 314 316 318 320 325 326 327 327 327 327 324 323 324 325 324 323 325 325 326 326 325 323 321 320 319 318 318 319 320 320 318 316 315 314 316
303 304 306 307 310 307 307 310 316 319 325 325 325 318 320 319 317 321 322 322 323 323 324 324 323 322 320 319 318 318 318 318 319 319 318 316 316 316
299 299 300 301 304 304 305 305 304 307 314 323 324 314 316 319 320 323 321 313 311 321 319 320 321 321 321 321 320 320 319 319 318 319 318 317 316 316
293 294 295 295 295 294 295 299 303 305 308 312 316 318 320 321 320 318 315 316 318 319 316 312 314 315 316 317 318 318 318 318 318 317 318 318 317 317
289 290 291 291 292 291 290 291 295 302 305 307 309 316 319 321 319 320 318 314 309 310 311 304 310 310 309 310 312 312 312 313 314 314 312 313 316 316
287 288 289 290 290 289 288 288 290 295 299 302 306 311 315 317 321 319 313 306 297 302 305 306 296 298 298 302 304 306 307 309 309 309 309 307 307 312
284 286 287 287 286 285 286 287 288 291 292 295 304 309 313 315 316 318 317 308 299 294 302 304 295 297 291 293 294 296 298 299 301 303 305 304 301 297
282 283 285 284 284 285 286 287 289 290 292 294 296 300 306 310 311 313 315 316 305 306 310 302 295 293 292 286 287 290 292 294 296 296 297 298 297 298
281 281 282 283 284 286 287 288 289 290 291 292 293 296 299 303 308 311 313 313 311 313 312 305 299 296 289 285 285 286 288 290 292 292 292 292 292 291
281 282 283 284 286 287 287 288 287 287 288 289 291 294 296 300 303 306 307 305 306 305 306 305 303 297 294 288 285 285 285 286 288 289 288 289 289 290
282 283 284 285 285 285 285 285 284 285 285 286 288 290 293 296 300 302 302 301 301 299 299 298 299 301 293 292 288 285 285 285 286 287 287 286 287 287
282 282 282 283 282 282 283 282 282 282 284 284 285 286 289 292 294 297 298 296 296 291 290 291 292 293 293 293 288 286 285 285 284 285 285 284 285 285
279 279 280 281 281 281 281 281 281 281 282 282 283 284 286 289 291 293 293 294 293 291 290 287 290 289 288 287 289 285 284 284 284 284 284 284 283 284
276 276 277 279 280 280 280 280 280 281 281 281 282 283 284 286 289 290 291 292 290 290 289 287 287 289 288 286 284 286 284 284 283 283 283 284 283 283
274 275 275 276 278 279 279 279 279 279 280 280 281 282 283 284 286 288 289 290 288 287 286 286 287 288 289 286 284 284 284 283 283 283 283 283 283 283
273 273 274 275 276 276 277 279 280 279 279 280 280 281 282 283 284 285 286 287 286 286 285 285 286 287 285 285 284 284 283 284 283 283 283 283 282 283
272 272 272 273 273 275 276 277 278 279 279 280 280 280 281 283 283 284 284 284 285 285 285 284 284 285 285 284 283 283 283 283 283 283 283 283 282 282
271 271 271 271 272 273 274 275 276 278 279 279 280 281 281 282 283 283 284 284 284 284 283 283 283 283 282 282 282 280 280 280 281 282 282 283 283 283
Wind_Speed
27 25 25 23 29 37 35 31 18 8 6 12 14 22 33 36 43 43 42 46 45 44 45 45 48 48 45 44 42 40 37 37 36 35 34 34 32 35
26 28 29 25 28 32 31 29 29 17 5 20 27 26 28 36 41 41 43 45 44 47 47 46 48 50 49 46 44 43 40 38 38 36 35 37 35 37
25 26 29 30 26 25 28 30 30 26 10 17 25 25 29 34 35 36 40 43 46 47 48 48 49 51 51 49 47 45 43 42 40 38 36 38 37 38
23 25 23 23 30 29 28 30 30 28 22 13 17 22 31 34 32 33 33 43 46 45 49 47 49 50 51 50 48 49 47 44 42 40 38 39 40 41
5 3 3 8 17 26 31 31 30 29 23 24 17 19 25 29 32 32 31 44 48 45 41 49 49 50 52 51 50 50 49 46 44 43 42 41 42 43
8 7 9 11 10 11 12 15 20 17 15 18 20 15 17 24 28 29 29 38 41 43 43 43 47 51 52 51 50 49 48 49 48 48 46 43 43 44
17 13 10 11 7 12 12 13 12 10 15 16 14 9 11 8 17 26 28 29 37 41 43 41 41 43 48 49 47 47 49 49 52 51 49 49 46 47
18 16 15 14 17 19 17 16 12 9 12 13 17 9 18 23 29 25 25 13 6 36 34 37 37 38 40 41 42 45 48 50 52 54 54 53 52 51
19 17 15 16 17 20 21 20 17 13 11 13 14 16 21 31 32 30 31 27 20 25 35 24 33 32 33 35 38 39 40 39 43 51 56 57 56 56
19 20 18 17 17 23 29 27 24 19 16 16 16 18 21 27 34 35 37 30 19 16 25 10 26 30 31 31 33 35 35 36 37 37 40 49 59 61
17 17 16 16 20 24 27 23 27 24 19 17 15 18 21 22 30 31 24 17 5 13 25 10 13 16 20 24 24 27 28 30 31 30 30 34 45 56
21 21 19 19 25 27 23 21 22 23 28 28 21 19 19 19 22 34 34 18 9 2 23 21 17 14 5 12 16 16 16 16 17 21 25 32 35 36
21 23 23 28 29 24 21 21 20 26 29 26 26 23 22 21 21 28 38 37 23 13 19 32 21 16 5 7 11 14 13 14 15 18 22 30 39 47
20 23 27 28 25 22 20 19 20 22 23 23 21 21 21 23 24 25 36 40 35 33 25 37 14 26 16 8 6 17 17 17 20 25 29 33 38 39
23 25 24 20 20 18 19 17 21 22 20 17 15 17 19 20 21 22 27 29 26 21 19 34 35 27 23 12 13 17 24 20 27 31 35 37 37 37
29 25 21 18 18 17 19 20 18 19 20 19 17 22 23 18 19 21 22 23 19 12 18 24 30 24 24 16 13 24 19 15 34 33 33 32 32 34
24 22 22 19 21 20 18 18 18 21 19 20 20 20 21 19 18 19 21 22 13 14 17 17 19 20 19 23 15 21 21 18 31 33 32 26 27 29
21 20 20 21 21 22 22 22 20 19 22 23 21 20 18 17 17 17 17 17 13 14 14 20 28 19 13 6 12 25 21 23 28 33 29 26 23 28
22 22 22 22 22 20 22 23 22 23 23 19 19 20 19 18 15 15 15 14 10 14 16 22 22 13 5 3 7 25 26 25 28 27 29 25 22 29
21 20 21 24 23 23 22 23 23 23 21 20 19 19 20 16 12 13 15 12 11 11 14 19 20 15 2 4 5 12 22 31 28 24 24 23 23 29
24 24 24 23 23 23 25 24 25 22 23 21 19 19 19 16 13 11 13 14 15 13 13 14 15 16 20 20 14 14 20 26 30 30 30 28 25 21
24 23 25 24 24 24 24 25 23 24 22 19 19 18 17 14 14 11 13 13 12 15 15 22 25 24 20 19 17 19 21 23 23 26 28 22 21 7
25 25 25 26 27 27 25 24 23 24 21 20 18 15 13 11 11 12 12 13 16 19 23 22 21 24 23 27 28 21 28 29 30 28 22 20 12 20
Wind_Direction
192 196 197 212 232 234 234 236 228 245 220 214 217 239 231 225 231 232 231 232 228 225 224 225 224 226 227 227 227 226 225 223 220 222 221 217 219 213
205 206 213 219 227 225 232 243 242 224 224 215 220 233 243 236 232 229 233 235 232 228 226 227 226 226 228 229 229 229 229 227 227 224 223 222 222 216
227 230 244 251 242 237 239 243 237 229 228 246 228 233 228 233 227 227 232 233 238 232 227 229 228 227 228 231 231 231 230 230 229 230 226 224 223 220
254 250 241 246 241 246 242 232 234 234 230 239 237 222 218 225 228 225 232 238 238 236 230 230 229 227 229 232 231 232 231 231 232 233 232 228 225 225
72 19 330 277 268 257 260 255 257 259 258 249 248 232 222 221 223 233 232 234 234 237 235 231 230 228 230 233 233 233 233 232 233 234 235 231 229 229
13 11 16 357 347 322 324 281 267 252 242 235 235 222 217 221 214 210 219 224 221 227 229 228 228 229 232 234 235 235 235 235 234 235 234 232 231 230
13 21 12 359 331 357 1 338 338 323 246 238 231 175 201 212 218 208 213 216 217 218 217 219 221 225 231 236 238 237 238 238 239 237 236 234 231 229
9 0 345 343 325 323 313 316 329 313 309 268 232 194 211 213 214 221 208 200 222 225 226 213 219 224 231 235 238 241 243 241 240 240 237 237 234 230
1 359 356 355 353 347 329 315 308 306 285 283 272 248 220 223 218 209 205 211 221 220 215 216 216 220 224 230 234 240 243 246 245 242 240 240 236 231
356 349 354 349 351 348 341 335 321 309 304 286 284 276 274 246 234 224 217 216 224 204 204 192 212 224 229 233 237 241 245 247 250 251 249 252 245 233
351 356 354 346 344 340 340 332 324 318 316 306 291 271 266 261 246 229 204 175 190 204 205 195 203 191 219 226 238 246 247 246 247 246 246 247 240 238
354 353 349 348 336 332 333 325 317 320 326 318 298 281 269 265 255 243 224 203 177 178 214 184 187 182 179 220 227 237 244 247 243 243 242 233 219 187
348 337 334 331 334 330 326 320 316 321 317 314 308 302 290 274 268 241 230 226 201 207 221 192 182 182 144 145 194 205 216 214 213 203 205 205 194 193
338 327 324 326 329 337 333 325 325 322 319 318 309 302 298 290 272 258 235 234 228 233 224 204 196 179 162 144 156 182 185 184 184 174 173 175 175 172
341 330 332 342 344 339 336 334 333 334 323 313 311 306 304 301 287 262 243 234 229 230 224 208 212 195 182 155 156 166 155 178 180 172 166 168 172 178
343 350 351 353 353 348 347 339 333 331 323 315 314 312 308 296 268 251 233 225 214 201 199 211 213 200 188 186 171 163 167 161 180 173 167 169 175 178
354 358 356 360 0 354 348 343 333 338 329 327 324 316 310 302 269 243 227 208 201 170 170 189 200 198 202 180 147 166 165 160 170 168 168 162 175 182
10 2 350 356 352 346 344 339 338 334 330 325 321 314 305 296 277 253 231 208 193 178 166 159 162 145 134 138 190 159 164 160 166 167 167 155 159 175
10 358 351 350 340 342 338 336 328 327 329 319 314 311 308 303 275 241 226 213 177 166 165 169 166 174 156 134 168 188 155 162 161 163 163 164 164 168
6 356 348 344 343 340 333 333 329 327 327 322 318 315 309 296 275 242 217 206 172 157 156 171 176 185 191 133 124 158 180 159 161 159 153 152 156 174
359 355 350 346 342 340 340 330 335 332 327 323 318 315 308 293 271 238 216 193 167 163 168 166 168 173 140 128 109 128 158 171 167 156 150 144 143 151
1 355 352 350 344 342 338 341 334 339 337 328 324 318 307 288 263 230 198 171 168 155 139 132 142 148 138 130 129 124 124 128 145 150 156 158 154 154
1 358 356 356 353 352 343 342 342 343 342 334 330 319 306 286 248 223 191 169 151 137 134 131 128 130 124 128 127 122 123 114 119 118 124 145 136 150